Other Public Products
Issued by NWS Grand Forks, ND

Home | Current Version | Previous Version | Text Only | Print | Product List | Glossary On
Versions: 1 2 3 4 5 6 7 8 9 10 11 12 13 14 15 16 17 18 19 20 21 22 23 24 25 26 27 28 29 30 31 32 33 34 35 36 37 38 39 40 41 42 43 44 45 46 47 48 49 50
000
FPUS83 KFGF 211510
OPUFGF
PRAIRIE TO PINES WEATHER ROUNDUP
NATIONAL WEATHER SERVICE EASTERN NORTH DAKOTA/GRAND FORKS ND
1000 AM CDT TUE APR 21 2015

 **SATELLITE DATA USED TO AUGMENT SKY COVER AT AUTOMATED STATIONS**
 *****  WEATHER ACROSS EASTERN NORTH DAKOTA  *****

CITY           SKY/WX    TMP DP  RH WIND       PRES   REMARKS
GRAND FORKS    CLOUDY    32  25  75 N26G38    29.74R WCI  18
GRAND FORKS AF CLOUDY    32  23  70 N20G35    29.75R WCI  20
GRAND CITY NWS   N/A     30 N/A N/A N29         N/A  WCI  15
BUXTON         NOT AVBL
DEVILS LAKE    CLOUDY    34  21  60 N25G31    29.80S WCI  21
FARGO          CLOUDY    35  27  72 NW28      29.72R WCI  22
WAHPETON ARPT  CLOUDY    34  27  75 N22G33    29.72R WCI  22
$$

 *****  WEATHER ACROSS CENTRAL AND WESTERN NORTH DAKOTA  *****

CITY           SKY/WX    TMP DP  RH WIND       PRES   REMARKS
JAMESTOWN      CLOUDY    34  24  67 N22G28    29.79R WCI  22
BISMARCK       MOSUNNY   36  26  67 N14G23    29.88S
MINOT          CLOUDY    34  23  64 N17G25    29.92R WCI  23
MINOT AFB      CLOUDY    34  25  69 NE20      29.91R WCI  23
GARRISON         N/A     35  26  69 N13G23    29.89R
WILLISTON      SUNNY     39  24  55 N7        29.95R
DICKINSON      PTSUNNY   35  24  64 NE10      29.87R
HETTINGER      MOSUNNY   36  26  67 NE14      29.88R
$$

 *****  OTHER OBSERVATIONS NORTHEAST NORTH DAKOTA  *****

CITY           SKY/WX    TMP DP  RH WIND       PRES   REMARKS
WALHALLA       CLOUDY    32  28  86 N18G32    29.81R WCI  20
LANGDON        CLOUDY    32  23  69 N32G41    29.77S WCI  17
CAVALIER       MIX PCPN  32  25  74 N28G35    29.78R WCI  18
GRAFTON        CLOUDY    30  28  93 N28G38    29.76R FOG     WCI  16
CANDO          CLOUDY    32  25  74 N28G38    29.84R WCI  18
FORT TOTTEN      N/A     33  24  70 N12       29.95S WCI  24
ROLLA          CLOUDY    32  21  64 N32G40    29.85S WCI  17
RUGBY          NOT AVBL
 ***** THE ABOVE OBSERVATIONS ARE NON NWS ARE NOT QUALITY
        CONTROLLED AND MAY MIS-REPORT RAIN FOR SNOW...
$$

 *****  OTHER OBSERVATIONS SOUTHEAST NORTH DAKOTA *****

CITY           SKY/WX    TMP DP  RH WIND       PRES   REMARKS
COOPERSTOWN    NOT AVBL
VALLEY CITY    FLURRIES  32  27  80 N23G30    29.77R WCI  19
OAKES            N/A     36  25  64 NW29      29.77R
GWINNER        CLOUDY    37  27  65 NW22G32   29.77R
SHEYENNE NWR     N/A     35  24  63 N15       29.95
BUFFALO        NOT AVBL
WYNDMERE         N/A     36  27  69 NW21        N/A
 ***** THE ABOVE OBSERVATIONS ARE NON NWS ARE NOT QUALITY
       CONTROLLED AND MAY MIS-REPORT RAIN FOR SNOW...
$$

  *****  WEATHER ACROSS NORTHERN MINNESOTA  *****

CITY           SKY/WX    TMP DP  RH WIND       PRES   REMARKS
FLAG ISLAND    LGT SNOW  27  23  86 N26G35    29.60R WCI  11
WARROAD        LGT SNOW  28  25  86 N18G30    29.62R WCI  16
ROSEAU         LGT SNOW  28  23  80 N26G33    29.64R WCI  13
HALLOCK        PTSUNNY   30  25  80 N32G46    29.73R WCI  15
THF RVR FALLS  CLOUDY    30  23  74 NW24G32   29.66R WCI  16
HALSTAD        NOT AVBL
FOSSTON        LGT SNOW  28  25  86 NW18G26   29.63R WCI  16
BAUDETTE       LGT SNOW  28  22  78 N18G29    29.56R WCI  15
WASKISH        CLOUDY    28  25  86 NW17G25   29.55R WCI  16
CROOKSTON      PTSUNNY   32  27  80 N37G44    29.70R WCI  16
$$
  *****  WEATHER ACROSS CENTRAL AND WEST MINNESOTA  *****

CITY           SKY/WX    TMP DP  RH WIND       PRES   REMARKS
BEMIDJI        LGT SNOW  29  24  79 NW24      29.55R WCI  15
PARK RAPIDS    CLOUDY    33  24  69 NW21G33   29.55R WCI  21
WADENA         DRIZZLE   30  23  74 NW18G37   29.58R WCI  18
DETROIT LAKES  MIX PCPN  32  28  86 N28G38    29.64R WCI  18
MOORHEAD       CLOUDY    36  27  69 NW32G39   29.71S
FERGUS FALLS   CLOUDY    34  25  69 N28G38    29.69R WCI  20
ELBOW LAKE     CLOUDY    33  27  80 NW31G41   29.66R WCI  18
MORRIS MN      CLOUDY    36  27  69 NW32G40   29.67R
STAPLES        LGT RAIN  28  27  93 NW12G21   29.57R WCI  18
WHEATON        CLOUDY    34  25  69 NW23G30   29.74R WCI  22
$$
  *****  WEATHER ELSEWHERE ACROSS MINNESOTA  *****

CITY           SKY/WX    TMP DP  RH WIND       PRES   REMARKS
DULUTH         FLURRIES  32  23  69 NW15G30   29.40R WCI  22
INTRNTL FALLS  LGT SNOW  26  21  81 N15G29    29.50R WCI  14
ELY            CLOUDY    27  21  80 NW18G24   29.38R HAZE    WCI  13
CLOQUET        CLOUDY    34  23  64 NW20G30   29.42S WCI  22
BRAINERD       CLOUDY    33  24  69 NW20G28   29.53S WCI  21
HIBBING        MIX PCPN  30  21  69 NW20G25   29.43S WCI  17
ALEXANDRIA     CLOUDY    33  24  69 NW26G41   29.62R WCI  20
SAINT CLOUD    CLOUDY    36  22  56 NW23G38   29.56R
MINNEAPOLIS    CLOUDY    37  25  61 W21G31    29.56S
$$

  *****  WEATHER ACROSS SOUTH DAKOTA  *****

CITY           SKY/WX    TMP DP  RH WIND       PRES   REMARKS
SIOUX FALLS    PTSUNNY   41  23  48 N24G31    29.78S
BROOKINGS      CLOUDY    37  23  56 NW29      29.76F
WATERTOWN      PTSUNNY   37  24  59 NW25G35   29.75R
HURON          PTSUNNY   40  25  55 NW15      29.83S
SISSETON         N/A     36  25  64 N31       29.73R
ABERDEEN       CLOUDY    38  24  57 NW20      29.83R
MITCHELL       MOSUNNY   42  26  53 N17       29.84S
PIERRE         CLOUDY    40  26  57 NE16      29.83S
MOBRIDGE       PTSUNNY   39  28  64 N14       29.82S
RAPID CITY     MOSUNNY   54  24  31 NE13      29.77F
$$

  *****  SOME WEATHER IN NEARBY STATES *****

CITY           SKY/WX    TMP DP  RH WIND       PRES   REMARKS
GLASGOW MT     SUNNY     40  26  57 E15       29.94R
GREAT FALLS MT SUNNY     46  31  55 SW8       29.89S
CHEYENNE WY    SUNNY     50  25  37 W12       29.93S
SCOTTSBLUFF NE SUNNY     45  31  58 W8        29.89S
OMAHA NE       SUNNY     54  24  31 W18G24    29.80F
DES MOINES IA  MOSUNNY   52  18  26 NW22G28   29.76S
DAVENPORT IA   SUNNY     47  31  53 W24G32    29.70R
CHICAGO IL     PTSUNNY   43  27  53 W30G43    29.61R
EAU CLAIRE WI  CLOUDY    36  27  69 W15G26    29.50R
LA CROSSE WI   CLOUDY    39  25  57 W15G24    29.56R
$$

  *****  SOME NATIONAL WEATHER *****

CITY           SKY/WX    TMP DP  RH WIND       PRES   REMARKS
LA GUARDIA NY  MOSUNNY   58  47  66 NW8       29.66R
RALEIGH NC     MOSUNNY   63  41  44 NW9G18    29.91R
ATLANTA GA     SUNNY     63  38  39 NW8G18    30.01R
NEW ORLEANS LA PTSUNNY   70  48  45 NE14      30.07R
OKLAHOMA CITY  MOSUNNY   61  45  55 S9        29.98S
ALBUQUERQUE NM MOSUNNY   54  25  32 CALM      30.03S
SALT LAKE CITY MOSUNNY   55  31  39 SE9       29.90S
LOS ANGELES CA CLOUDY    59  48  67 SE5       29.94R
BOISE ID       SUNNY     53  34  48 SE6       29.86R
SEATTLE WA     PTSUNNY   51  46  83 S6        29.93R
$$

*** WEATHER ACROSS MANITOBA...SASKATCHEWAN AND ONTARIO ***
                ***ONTARIO***

CITY           SKY/WX    TMP DP  RH WIND       PRES   REMARKS
GERALDTON      LGT SNOW  30  27  86 NW6       29.19R VSB 1   WCI  24
THUNDER BAY    PTSUNNY   32  27  80 NW10G20   29.30R WCI  24
SIOUX LOOKOUT  LGT SNOW  23  21  93 N12G23    29.43R VSB 3/4 WCI  12
TORONTO        PTSUNNY   48  36  61 SW15G23   29.55F
BIG TROUT LK   LGT SNOW  18  14  86 N23G32    29.59R VSB 5/8 WCI   0
PICKLE LAKE    LGT SNOW  21  18  86 N14G23    29.39R VSB 3/4 WCI   8
DRYDEN         LGT SNOW  23  21  93 N12G22    29.46S WCI  12
KENORA         LGT SNOW  25  21  86 N17G25    29.56R VSB 1   WCI  11
$$
                *** MANITOBA***

CITY           SKY/WX    TMP DP  RH WIND       PRES   REMARKS
BRANDON        PTSUNNY   36  21  55 N26       29.92R
DAUPHIN        SUNNY     36  16  44 N14G20    30.00R
ISLAND LAKE    FLURRIES  21  16  79 N16G30    29.90R WCI   7
PILOT MOUND      N/A     30  21  69 N25G35      N/A  WCI  16
THE PAS        MOSUNNY   30  25  80 N6        30.07R WCI  24
THOMPSON       PTSUNNY   21  18  86 N13       30.09R WCI   9
WINNIPEG       FLURRIES  28  21  74 N31G40    29.81R WCI  12
LYNN LAKE      PTSUNNY   30  21  69 SE9       30.07S WCI  22
CHURCHILL      LGT SNOW  16  12  86 NE16G23   30.20R DRFTSNOWWCI   0
GILLAM         FLURRIES  19  10  68 NE20      30.07R WCI   4
$$
                ***SASKATCHEWAN***

CITY           SKY/WX    TMP DP  RH WIND       PRES   REMARKS
ESTEVAN        MOSUNNY   34  27  75 NE9G17    29.97R
KINDERSLEY     MOSUNNY   39  30  70 SE14      29.96R
LLOYDMINSTER   MOSUNNY   37  30  75 S12       29.93S
PRINCE ALBERT  SUNNY     39  25  56 S8        30.04S
REGINA         MOSUNNY   36  25  64 NE7       30.01R



USA.gov is the U.S. government's official web portal to all federal, state and local government web resources and services.